Hourly Weather Homs

Today, 16 April, Friday

Time Temperature Precipitation Wind Pressure Humidity
00:00 +18°C° 0 mm 1 mps 718 mmHg 45%
01:00 +18°C° 0 mm 1 mps 717 mmHg 45%
02:00 +18°C° 0 mm 1 mps 717 mmHg 45%
03:00 +18°C° 0 mm 1 mps 717 mmHg 45%
04:00 +18°C° 0 mm 1 mps 717 mmHg 44%
05:00 +18°C° 0 mm 1 mps 717 mmHg 44%
06:00 +20°C° 0 mm 1 mps 718 mmHg 40%
07:00 +21°C° 0 mm 2 mps 718 mmHg 36%
08:00 +23°C° 0 mm 2 mps 718 mmHg 32%
09:00 +25°C° 0 mm 2 mps 718 mmHg 28%
10:00 +26°C° 0 mm 2 mps 718 mmHg 24%
11:00 +28°C° 0 mm 1 mps 718 mmHg 20%
12:00 +28°C° 0 mm 2 mps 718 mmHg 20%
13:00 +29°C° 0 mm 2 mps 718 mmHg 19%
14:00 +30°C° 0 mm 3 mps 718 mmHg 18%
15:00 +29°C° 0 mm 3 mps 718 mmHg 22%
16:00 +28°C° 0 mm 3 mps 717 mmHg 27%
17:00 +27°C° 0 mm 3 mps 717 mmHg 31%
18:00 +25°C° 0 mm 2 mps 717 mmHg 35%
19:00 +23°C° 0 mm 2 mps 717 mmHg 40%
20:00 +21°C° 0 mm 1 mps 718 mmHg 44%
21:00 +21°C° 0 mm 1 mps 718 mmHg 45%
22:00 +20°C° 0 mm 1 mps 718 mmHg 47%
23:00 +20°C° 0 mm 1 mps 718 mmHg 48%

Tomorrow, 17 April, Saturday

Time Temperature Precipitation Wind Pressure Humidity
00:00 +19°C° 0 mm 1 mps 717 mmHg 49%
01:00 +19°C° 0 mm 1 mps 717 mmHg 51%
02:00 +18°C° 0 mm 1 mps 717 mmHg 53%
03:00 +18°C° 0 mm 1 mps 717 mmHg 53%
04:00 +16°C° 0 mm 1 mps 717 mmHg 54%
05:00 +16°C° 0 mm 1 mps 717 mmHg 55%
06:00 +19°C° 0 mm 1 mps 717 mmHg 49%
07:00 +21°C° 0 mm 1 mps 718 mmHg 42%
08:00 +23°C° 0 mm 2 mps 718 mmHg 36%
09:00 +25°C° 0 mm 2 mps 719 mmHg 32%
10:00 +27°C° 0 mm 2 mps 719 mmHg 27%
11:00 +28°C° 0 mm 2 mps 719 mmHg 23%
12:00 +29°C° 0 mm 3 mps 718 mmHg 22%
13:00 +30°C° 0 mm 3 mps 718 mmHg 20%
14:00 +32°C° 0 mm 4 mps 718 mmHg 19%
15:00 +30°C° 0 mm 4 mps 718 mmHg 23%
16:00 +29°C° 0 mm 3 mps 718 mmHg 26%
17:00 +28°C° 0 mm 3 mps 718 mmHg 30%
18:00 +26°C° 0 mm 3 mps 718 mmHg 34%
19:00 +25°C° 0 mm 2 mps 718 mmHg 38%
20:00 +23°C° 0 mm 1 mps 719 mmHg 43%
21:00 +23°C° 0 mm 1 mps 719 mmHg 43%
22:00 +23°C° 0 mm 2 mps 719 mmHg 42%
23:00 +21°C° 0 mm 2 mps 718 mmHg 42%

Day after tomorrow, 18 April, Sunday

Time Temperature Precipitation Wind Pressure Humidity
00:00 +22°C° 0 mm 1 mps 718 mmHg 42%
01:00 +22°C° 0 mm 1 mps 718 mmHg 43%
02:00 +21°C° 0 mm 1 mps 718 mmHg 43%
03:00 +19°C° 0 mm 0 mps 718 mmHg 43%
04:00 +19°C° 0 mm 0 mps 718 mmHg 44%
05:00 +18°C° 0 mm 0 mps 718 mmHg 45%
06:00 +23°C° 0 mm 1 mps 719 mmHg 39%
07:00 +25°C° 0 mm 1 mps 719 mmHg 33%
08:00 +28°C° 0 mm 1 mps 720 mmHg 27%
09:00 +29°C° 0 mm 2 mps 720 mmHg 24%
10:00 +31°C° 0 mm 2 mps 720 mmHg 21%
11:00 +34°C° 0 mm 2 mps 719 mmHg 18%
12:00 +34°C° 0 mm 2 mps 719 mmHg 18%
13:00 +34°C° 0 mm 3 mps 719 mmHg 18%
14:00 +35°C° 0 mm 4 mps 719 mmHg 18%
15:00 +34°C° 0 mm 3 mps 719 mmHg 21%
16:00 +33°C° 0 mm 3 mps 719 mmHg 24%
17:00 +31°C° 0 mm 3 mps 719 mmHg 27%
18:00 +29°C° 0 mm 2 mps 719 mmHg 29%
19:00 +28°C° 0 mm 2 mps 719 mmHg 32%
20:00 +26°C° 0 mm 1 mps 719 mmHg 34%
21:00 +26°C° 0 mm 1 mps 719 mmHg 35%
22:00 +25°C° 0 mm 1 mps 719 mmHg 35%
23:00 +25°C° 0 mm 1 mps 718 mmHg 36%

19 April, Monday

Time Temperature Precipitation Wind Pressure Humidity
00:00 +24°C° 0 mm 1 mps 718 mmHg 36%
01:00 +24°C° 0 mm 2 mps 718 mmHg 35%
02:00 +24°C° 0 mm 2 mps 718 mmHg 35%
03:00 +24°C° 0 mm 2 mps 718 mmHg 35%
04:00 +24°C° 0 mm 2 mps 717 mmHg 34%
05:00 +24°C° 0 mm 3 mps 717 mmHg 34%
06:00 +26°C° 0 mm 3 mps 717 mmHg 31%
07:00 +28°C° 0 mm 4 mps 718 mmHg 28%
08:00 +30°C° 0 mm 5 mps 718 mmHg 25%
09:00 +33°C° 0 mm 5 mps 717 mmHg 22%
10:00 +34°C° 0 mm 5 mps 717 mmHg 18%
11:00 +36°C° 0 mm 5 mps 717 mmHg 15%
12:00 +37°C° 0 mm 5 mps 716 mmHg 14%
13:00 +38°C° 0 mm 4 mps 716 mmHg 13%
14:00 +38°C° 0 mm 4 mps 716 mmHg 13%
15:00 +37°C° 0 mm 4 mps 716 mmHg 16%
16:00 +35°C° 0 mm 3 mps 715 mmHg 20%
17:00 +34°C° 0 mm 2 mps 715 mmHg 24%
18:00 +32°C° 0 mm 2 mps 715 mmHg 25%
19:00 +30°C° 0 mm 1 mps 715 mmHg 26%
20:00 +29°C° 0 mm 1 mps 715 mmHg 27%
21:00 +29°C° 0 mm 2 mps 715 mmHg 26%
22:00 +29°C° 0 mm 2 mps 714 mmHg 25%
23:00 +29°C° 0 mm 3 mps 714 mmHg 24%

20 April, Tuesday

Time Temperature Precipitation Wind Pressure Humidity
00:00 +28°C° 0 mm 3 mps 714 mmHg 25%
01:00 +27°C° 0 mm 3 mps 714 mmHg 26%
02:00 +27°C° 0 mm 3 mps 713 mmHg 26%
03:00 +25°C° 0 mm 3 mps 713 mmHg 32%
04:00 +24°C° 0 mm 3 mps 713 mmHg 38%
05:00 +21°C° 0 mm 4 mps 713 mmHg 44%
06:00 +22°C° 0 mm 5 mps 714 mmHg 46%
07:00 +22°C° 0 mm 6 mps 714 mmHg 49%
08:00 +23°C° 0 mm 6 mps 715 mmHg 51%
09:00 +24°C° 0 mm 7 mps 715 mmHg 48%
10:00 +26°C° 0 mm 8 mps 715 mmHg 45%
11:00 +26°C° 0 mm 9 mps 715 mmHg 42%
12:00 +26°C° 0 mm 10 mps 715 mmHg 39%
13:00 +24°C° 0 mm 10 mps 715 mmHg 35%
14:00 +24°C° 0 mm 10 mps 715 mmHg 32%
15:00 +23°C° 0 mm 9 mps 715 mmHg 34%
16:00 +21°C° 0 mm 8 mps 715 mmHg 35%
17:00 +20°C° 0 mm 7 mps 715 mmHg 37%
18:00 +19°C° 0 mm 6 mps 715 mmHg 43%
19:00 +16°C° 0 mm 5 mps 715 mmHg 48%
20:00 +15°C° 0 mm 4 mps 716 mmHg 54%
21:00 +14°C° 0 mm 4 mps 716 mmHg 58%
22:00 +14°C° 0 mm 5 mps 716 mmHg 62%
23:00 +13°C° 0 mm 5 mps 716 mmHg 66%

21 April, Wednesday

Time Temperature Precipitation Wind Pressure Humidity
00:00 +13°C° 0 mm 5 mps 716 mmHg 70%
01:00 +13°C° 0 mm 5 mps 716 mmHg 73%
02:00 +12°C° 0 mm 5 mps 716 mmHg 77%
03:00 +12°C° 0 mm 4 mps 716 mmHg 80%
04:00 +12°C° 0 mm 4 mps 716 mmHg 82%
05:00 +11°C° 0 mm 4 mps 716 mmHg 84%
06:00 +13°C° 0 mm 5 mps 716 mmHg 74%
07:00 +15°C° 0 mm 5 mps 717 mmHg 64%
08:00 +16°C° 0 mm 6 mps 717 mmHg 54%
09:00 +19°C° 0 mm 6 mps 717 mmHg 46%
10:00 +21°C° 0 mm 7 mps 717 mmHg 39%
11:00 +22°C° 0 mm 8 mps 717 mmHg 31%
12:00 +22°C° 0 mm 8 mps 717 mmHg 30%
13:00 +23°C° 0 mm 8 mps 717 mmHg 29%
14:00 +23°C° 0 mm 8 mps 717 mmHg 29%
15:00 +22°C° 0 mm 7 mps 717 mmHg 32%
16:00 +20°C° 0 mm 6 mps 717 mmHg 36%
17:00 +19°C° 0 mm 6 mps 717 mmHg 39%
18:00 +17°C° 0 mm 5 mps 717 mmHg 48%
19:00 +15°C° 0 mm 4 mps 718 mmHg 57%
20:00 +13°C° 0 mm 3 mps 718 mmHg 66%
21:00 +14°C° 0 mm 2 mps 718 mmHg 67%
22:00 +14°C° 0 mm 2 mps 718 mmHg 67%
23:00 +13°C° 0 mm 2 mps 718 mmHg 67%
Show more